Cloud_Cover
100 100 100 100 67 5 5 5 82 100 92 11 100 100 100 100 100 100 100 100 100 100 100 100 100 100 100 100 100 100 5 5 4 5 5 5 5 5 12 13 60 38 5 5
11 96 100 100 100 100 93 9 45 5 93 92 100 98 100 100 100 100 100 100 100 100 100 100 100 100 100 96 58 51 48 11 14 5 5 5 32 99 100 100 76 5 51 66
96 61 100 100 45 10 23 64 74 5 5 5 22 98 100 100 100 100 100 100 100 100 100 100 100 100 100 100 100 100 100 99 81 49 43 87 100 100 98 49 15 5 5 42
92 100 99 100 100 91 5 21 12 87 16 38 46 2 100 100 100 100 100 100 98 48 95 100 100 100 98 85 99 98 100 93 75 60 36 98 52 68 6 5 5 5 19 23
100 100 100 100 100 100 100 100 91 100 54 5 52 41 80 97 100 100 100 100 100 90 55 48 62 81 70 63 87 5 5 5 5 5 6 37 6 5 5 5 5 5 5 5
100 100 100 100 100 92 81 99 98 100 69 5 100 65 79 34 5 49 82 99 92 99 100 100 100 83 84 83 61 28 15 26 60 99 33 23 5 12 9 11 87 100 86 37
100 100 100 100 100 100 95 8 3 2 3 4 11 8 83 100 99 98 53 24 11 29 85 99 97 97 100 93 62 67 88 100 96 90 13 61 89 95 100 100 97 53 0 4
67 100 100 100 31 18 58 15 0 1 1 4 22 5 5 78 100 100 86 62 98 98 100 100 93 73 45 57 22 5 16 19 32 98 100 100 100 100 100 100 13 2 0 4
5 5 5 5 5 8 5 5 0 0 0 2 0 24 67 100 100 100 100 100 100 100 100 100 100 100 100 100 100 100 99 100 100 100 100 100 100 100 99 9 3 5 5 5
5 1 0 0 0 0 0 0 2 17 61 17 1 0 3 4 16 88 100 100 100 100 100 100 100 100 100 100 100 100 100 100 100 100 100 100 100 95 5 5 5 5 5 5
42 18 0 0 5 5 40 12 9 94 100 99 16 2 5 7 78 88 100 100 100 100 100 100 100 100 100 100 100 100 100 100 100 100 100 100 100 5 5 5 5 5 5 5
30 71 11 5 5 90 100 100 100 100 100 100 100 19 58 74 100 100 100 100 100 100 100 100 100 100 100 100 100 100 100 100 100 100 100 100 61 5 5 51 5 5 5 5
6 63 60 5 56 100 98 96 96 100 100 100 100 100 100 100 99 100 100 100 100 100 100 100 100 100 100 100 100 100 100 100 100 100 86 48 7 17 93 45 5 5 5 6
91 75 30 100 90 100 88 100 100 100 100 100 100 100 100 100 100 100 100 100 100 100 100 100 100 100 100 100 100 100 100 100 100 84 24 7 57 59 9 10 5 5 15 99
100 74 12 77 100 100 97 98 100 100 100 99 2 86 99 100 100 100 100 100 100 100 100 100 100 100 100 100 100 100 100 57 86 58 27 60 98 49 5 7 22 26 19 100
48 25 5 5 16 100 93 100 100 100 100 98 5 4 100 100 100 100 100 100 100 100 100 100 100 100 100 100 66 69 98 66 34 100 78 91 76 76 68 98 99 64 69 90
5 61 100 41 38 99 95 91 100 100 100 100 43 34 100 100 100 100 100 100 100 100 100 100 100 100 96 98 96 90 47 38 98 95 96 100 90 84 90 38 23 4 2 4
6 59 100 93 100 97 36 100 100 100 100 100 100 100 100 100 100 100 100 100 100 100 100 100 100 100 86 45 11 5 24 82 100 99 94 99 66 11 5 2 0 0 0 0
99 100 100 100 100 57 68 100 100 100 100 100 99 100 59 97 100 100 100 100 100 100 100 100 66 38 58 47 38 36 50 100 100 78 6 5 5 5 5 5 0 0 4 5
86 100 100 100 100 100 98 100 100 98 100 100 100 100 100 95 100 70 100 100 100 85 16 5 5 15 62 49 89 85 91 100 45 48 5 5 1 2 5 5 5 0 0 0
96 100 100 95 88 78 100 100 100 100 100 100 100 100 100 100 100 100 100 66 7 5 5 5 6 27 55 8 75 90 99 63 50 5 1 0 0 0 0 2 3 0 0 4
77 100 100 54 100 100 100 100 100 100 100 100 100 100 100 100 100 100 93 89 13 5 6 37 65 49 54 90 100 100 96 94 9 5 3 2 1 3 3 0 0 0 2 5
85 70 63 97 100 100 100 100 100 100 100 100 100 100 100 100 95 38 6 16 28 75 79 63 99 96 89 100 100 100 74 73 29 5 5 5 5 5 5 5 5 5 5 5
75 100 100 100 100 100 100 100 100 100 100 100 100 100 98 82 19 27 6 6 5 54 96 100 100 100 100 100 100 94 69 66 30 40 6 41 6 5 6 25 9 5 5 6
98 100 100 78 100 100 100 100 100 100 100 100 100 100 50 68 80 36 5 5 5 36 100 100 100 100 100 100 100 99 100 100 98 31 26 56 40 8 5 5 12 9 5 5
100 98 100 100 100 86 100 100 100 100 100 100 100 100 98 88 98 67 28 14 56 26 100 100 100 100 100 100 100 100 100 100 100 100 62 77 85 69 24 9 8 45 27 17